Meteo Giornale » Osservazioni meteo Stati Uniti (USA) » New York City Central Park

ore: 17:51 - Osservazioni Meteo New York City Central Park
Lat. 40° 47' N Lon. 73° 58' W Alt. 47 metri s.l.m.

sereno America/New_York

18 °C

Sereno

Temp. 24 Ore

10 °C

19 °C

Nord-Ovest

13 Km/h

Dew point -2 °C

Umidità 25 %

Visibilità  10 Km

Il sole sorge alle ore 05:46

Il sole tramonta alle ore 19:58

Data e Ora Cielo e Fenomeni T °C DP °C Um. % Pres. hPa Vis. km Vento km/h
Oggi h: 17:51 sereno Sereno 18 -2 25 1012 10 NO 13
Oggi h: 17:12 sereno Sereno 18 -1 27 1012 10 N 5.5
Oggi h: 17:04 foschia Foschia 18 -1 27 1012 2 N 7.4
Oggi h: 16:51 sereno Sereno 18 -1 27 1012 10 N 11.1
Oggi h: 15:51 sereno Sereno 19 1 29 1012 10 N 9.3
Oggi h: 14:51 sereno Sereno 19 1 29 1013 10 N 5.5
Oggi h: 13:51 sereno Sereno 18 0 29 1014 10 N 11.1
Oggi h: 11:51 poco_nuvoloso Poco Nuvoloso 16 1 36 1015 10 O/NO 18.5
Oggi h: 10:51 poco_nuvoloso Poco Nuvoloso 14 2 44 1015 10 N 11.1
Oggi h: 09:51 poco_nuvoloso Poco Nuvoloso 13 2 47 1015 10 N 14.8
Oggi h: 08:51 sereno Sereno 12 2 50 1015 10 N 0
Oggi h: 07:51 sereno Sereno 11 4 61 1015 10 NO 13
Oggi h: 06:51 sereno Sereno 11 4 61 1014 10 NO 14.8
Oggi h: 05:51 sereno Sereno 10 4 66 1013 10 O/NO 11.1
Oggi h: 04:51 sereno Sereno 10 5 71 1012 10 NO 9.3
Oggi h: 03:51 sereno Sereno 11 4 61 1011 10 N 9.3
Oggi h: 02:51 sereno Sereno 11 4 61 1011 10 N 9.3
Oggi h: 01:51 sereno Sereno 12 4 57 1011 10 N 7.4
Oggi h: 00:51 sereno Sereno 12 5 62 1011 10 N 7.4
Ieri h: 23:51 sereno Sereno 13 6 62 1011 10 NO 16.7
Ieri h: 22:51 molto_nuvoloso Molto Nuvoloso 13 7 66 1011 10 NO 13
Ieri h: 21:51 molto_nuvoloso Molto Nuvoloso 13 9 76 1010 10 N 0
Ieri h: 20:51 coperto Coperto 13 11 87 1009 10 N 0
Ieri h: 20:08 coperto_pioggia Pioggia Debole Foschia 14 12 87 1008 10 N 11.1
Ieri h: 19:51 coperto_pioggia Pioggia Debole 14 12 87 1008 13 NO 13
Ieri h: 19:35 coperto_pioggia Pioggia Debole Foschia 14 13 93 1007 10 NO 18.5
Ieri h: 19:32 coperto_pioggia Pioggia Debole Foschia 14 13 93 1007 8 NO 14.8
Ieri h: 19:25 coperto_pioggia Pioggia Debole Foschia 15 13 87 1007 5 N 7.4
Ieri h: 19:14 coperto_pioggia Pioggia Foschia 15 14 93 1007 3 N 9.3
Ieri h: 19:02 coperto_pioggia Pioggia Debole Foschia 15 13 87 1007 6 N 7.4
Ieri h: 18:51 coperto_pioggia Pioggia Debole Foschia 16 14 87 1006 6 N 14.8